Content
SEND FEEDBACK

Daily
Averages
Monthly
Summary
United States of America

MERRILL, WISCONSIN


Home > North America > United States > Wisconsin
Elevation: 1302 feet     Latitude: 45 10N     Longitude: 089 40W

WEATHER
 
SELECT A DAY
Number of Records: 219,687;   Date Range: 9/28/99 - 8/12/14
 
SHARE

PRINT THIS DATA

[ ← Previous Day ]
WEATHER ALMANAC - FEBRUARY 13, 2013
[ Next Day → ]
[ °C ]   °F
Weather ElementAverageHighLow
Temperature24.7 °F33.8 °F (1:55 pm)5 °F (12:35 am)
Dewpoint21.3 °F30.2 °F (6:15 pm)3.2 °F (12:35 am)
Humidity87.4 %100 % (9:15 pm)69 % (12:15 pm)
Barometer29.66 in29.75 in (12:35 am)29.60 in (10:55 pm)
Wind Speed1.5 mph8.1 mph (4:15 pm)
Weather ElementAverage
Visibility6.8 mi
Wind DirectionENE (72.9 °)

Weather ElementTotal
Precipitation---
Heating Degree Days45.6 (Base 65)
Averaged from 70 records on February 13, 2013
WEATHER CONDITIONS BREAKOUT
WIND DIRECTION BREAKOUT
WEATHER BY HOUR - FEBRUARY 13, 2013
[ °C ]   °F
Local TimeTemperatureDewpointHumidityBarometerVisibilityWind DirectionWind SpeedGust SpeedPrecipitationEventsConditions
12:35 AM5.0 °F3.2 °F92 %29.75 in10.0 miCalmMostly Cloudy
12:55 AM8.6 °F5.0 °F85 %29.75 in10.0 miCalmOvercast
1:15 AM8.6 °F5.0 °F85 %29.74 in10.0 miCalmOvercast
1:35 AM10.4 °F8.6 °F92 %29.73 in10.0 miCalmOvercast
1:55 AM12.2 °F10.4 °F92 %29.73 in7.0 miCalmOvercast
2:15 AM12.2 °F10.4 °F92 %29.72 in7.0 miCalmOvercast
2:35 AM12.2 °F10.4 °F92 %29.72 in7.0 miCalmScattered Clouds
2:55 AM12.2 °F10.4 °F92 %29.71 in7.0 miCalmMostly Cloudy
3:15 AM12.2 °F10.4 °F92 %29.71 in10.0 miCalmMostly Cloudy
3:35 AM12.2 °F10.4 °F92 %29.71 in10.0 miCalmScattered Clouds
3:55 AM12.2 °F10.4 °F92 %29.70 in10.0 miCalmMostly Cloudy
4:15 AM12.2 °F8.6 °F85 %29.70 in7.0 miCalmMostly Cloudy
4:35 AM12.2 °F10.4 °F92 %29.69 in10.0 miCalmOvercast
4:55 AM14.0 °F10.4 °F86 %29.69 in7.0 miCalmOvercast
5:15 AM14.0 °F12.2 °F93 %29.69 in7.0 miCalmOvercast
5:35 AM14.0 °F12.2 °F93 %29.70 in10.0 miCalmOvercast
6:15 AM14.0 °F12.2 °F93 %29.69 in7.0 miCalmOvercast
6:35 AM17.6 °F14.0 °F86 %29.68 in7.0 miCalmOvercast
6:55 AM17.6 °F14.0 °F86 %29.68 in7.0 miCalmOvercast
7:15 AM17.6 °F15.8 °F93 %29.68 in4.0 miCalmOvercast
7:35 AM17.6 °F15.8 °F93 %29.68 in4.0 miCalmOvercast
7:55 AM17.6 °F15.8 °F93 %29.68 in4.0 miCalmOvercast
8:15 AM17.6 °F15.8 °F93 %29.68 in4.0 miCalmOvercast
8:35 AM19.4 °F17.6 °F93 %29.68 in4.0 miCalmOvercast
8:55 AM21.2 °F19.4 °F93 %29.67 in5.0 miCalmOvercast
9:15 AM23.0 °F21.2 °F93 %29.67 in5.0 miCalmOvercast
9:35 AM23.0 °F21.2 °F93 %29.66 in7.0 miCalmOvercast
9:55 AM24.8 °F21.2 °F86 %29.67 in5.0 miCalmOvercast
10:15 AM26.6 °F21.2 °F80 %29.67 in7.0 miCalmOvercast
10:35 AM26.6 °F21.2 °F80 %29.66 in7.0 miCalmMostly Cloudy
10:55 AM26.6 °F21.2 °F80 %29.66 in7.0 miWSW (240°)3.5 mphOvercast
11:15 AM28.4 °F23.0 °F80 %29.66 in10.0 miCalmOvercast
11:35 AM30.2 °F23.0 °F75 %29.66 in10.0 miSW (230°)4.6 mphOvercast
11:55 AM30.2 °F23.0 °F75 %29.65 in10.0 miWSW (240°)3.5 mphOvercast
12:15 PM32.0 °F23.0 °F69 %29.64 in10.0 miCalmOvercast
12:35 PM32.0 °F23.0 °F69 %29.63 in10.0 miSW (220°)4.6 mphMostly Cloudy
12:55 PM32.0 °F23.0 °F69 %29.63 in10.0 miSW (220°)3.5 mphMostly Cloudy
1:15 PM32.0 °F23.0 °F69 %29.63 in10.0 miSW (220°)3.5 mphOvercast
1:35 PM32.0 °F24.8 °F75 %29.63 in10.0 miSW (220°)4.6 mphOvercast
1:55 PM33.8 °F24.8 °F70 %29.63 in10.0 miSW (220°)3.5 mphOvercast
2:15 PM33.8 °F24.8 °F70 %29.62 in10.0 miSW (230°)4.6 mphOvercast
2:35 PM33.8 °F26.6 °F75 %29.63 in10.0 miSW (230°)6.9 mphOvercast
2:55 PM32.0 °F24.8 °F75 %29.63 in10.0 miSW (230°)4.6 mphScattered Clouds
3:15 PM33.8 °F26.6 °F75 %29.63 in10.0 miWSW (240°)4.6 mphMostly Cloudy
3:35 PM32.0 °F24.8 °F75 %29.63 in10.0 miWSW (250°)6.9 mphOvercast
3:55 PM32.0 °F26.6 °F80 %29.62 in10.0 miSW (230°)6.9 mphOvercast
4:15 PM32.0 °F26.6 °F80 %29.62 in10.0 miSW (230°)8.1 mphOvercast
4:35 PM32.0 °F26.6 °F80 %29.63 in10.0 miWSW (240°)5.8 mphOvercast
4:55 PM32.0 °F26.6 °F80 %29.63 in10.0 miSW (230°)5.8 mphOvercast
5:15 PM32.0 °F28.4 °F87 %29.63 in10.0 miWSW (250°)4.6 mphOvercast
5:35 PM32.0 °F28.4 °F87 %29.63 in10.0 miWSW (240°)4.6 mphOvercast
5:55 PM32.0 °F28.4 °F87 %29.64 in7.0 miWSW (240°)4.6 mphSnowLight Snow
6:15 PM32.0 °F30.2 °F93 %29.64 in2.0 miSW (220°)3.5 mphSnowLight Snow
6:35 PM32.0 °F30.2 °F93 %29.64 in5.0 miCalmSnowLight Snow
6:55 PM32.0 °F30.2 °F93 %29.64 in5.0 miCalmSnowLight Snow
7:15 PM32.0 °F30.2 °F93 %29.64 in2.5 miCalmSnowLight Snow
7:35 PM32.0 °F30.2 °F93 %29.64 in2.5 miCalmSnowLight Snow
7:55 PM32.0 °F30.2 °F93 %29.64 in3.0 miCalmSnowLight Snow
8:15 PM32.0 °F30.2 °F93 %29.63 in4.0 miCalmSnowLight Snow
8:35 PM32.0 °F30.2 °F93 %29.63 in2.5 miSW (230°)3.5 mphSnowLight Snow
8:55 PM32.0 °F30.2 °F93 %29.63 in2.5 miCalmSnowLight Snow
9:15 PM30.2 °F30.2 °F100 %29.63 in4.0 miCalmSnowLight Snow
9:35 PM30.2 °F30.2 °F100 %29.62 in1.5 miCalmSnowLight Snow
9:55 PM30.2 °F30.2 °F100 %29.61 in2.0 miCalmSnowLight Snow
10:15 PM30.2 °F30.2 °F100 %29.61 in2.5 miCalmSnowLight Snow
10:35 PM30.2 °F30.2 °F100 %29.61 in2.5 miCalmSnowLight Snow
10:55 PM30.2 °F30.2 °F100 %29.60 in2.5 miCalmSnowLight Snow
11:15 PM30.2 °F30.2 °F100 %29.61 in2.0 miCalmSnowLight Snow
11:35 PM30.2 °F30.2 °F100 %29.60 in1.5 miCalmSnowLight Snow
11:55 PM30.2 °F30.2 °F100 %29.60 in1.2 miCalmSnowLight Snow
Hourly data recorded from KRRL, located miles away from Merrill, Wisconsin







STORIES FROM OUR PARTNERS